Home > Weather > Caracas > Past weeks

Flag for Venezuela Weather for the Past 2 Weeks in Caracas, Venezuela

Now
82 °F

Passing clouds.


Feels Like: 88 °F
Forecast: 66 / 77 °F
Wind: 6 mph from Northeast

Location: Caracas / Maiquetia Aerop. Intl. Simon Bolivar

Current Time: Feb 11, 2016 at 2:50:21 PM

Latest Report: Feb 11, 2016 at 1:30 PM


Visibility: N/A

Pressure: 30.07 "Hg (27.23 "Hg at 875m altitude)

Humidity: 74%

Dew point: 73 °F

Location of CaracasLocation

Historic Weather in Caracas — Graph

°F

Caracas Temperature Yesterday

Maximum temperature yesterday: 84 °F (at 11:30 AM)
Minimum temperature yesterday: 73 °F (at 12:30 AM)
Average temperature yesterday: 78 °F

High & Low Weather Summary for the Past Weeks

 TemperatureHumidityPressure
High88 °F (Feb 6, 3:30 PM)94% (Feb 7, 6:30 PM)30.12 "Hg (Feb 7, 6:30 PM)
Low72 °F (Jan 28, 7:30 AM)41% (Feb 7, 12:30 AM)29.83 "Hg (Feb 6, 3:30 PM)
Average78 °F78%30.00 "Hg
* Reported Jan 27 1:30 PM — Feb 11 1:30 PM, Caracas, Weather by CustomWeather, © 2016

Note: Actual official high and low records may vary slightly from our data, if they occured in-between our weather recording intervals... More about our weather records

Advertising

Caracas Weather History for the Previous 24 Hours

 ConditionsComfort  
Time TempWeatherWind HumidityBarometerVisibility
1:30 PM
Thu, Feb 11
82 °FPassing clouds.6 mph74%30.07 "HgN/A
11:30 AM82 °FPassing clouds.5 mph74%30.09 "HgN/A
10:30 AM81 °FPassing clouds.3 mph79%30.12 "HgN/A
9:30 AM82 °FPassing clouds.2 mph74%30.12 "HgN/A
8:30 AM79 °FPassing clouds.1 mph79%30.09 "HgN/A
7:30 AM73 °FPassing clouds.No wind83%30.07 "HgN/A
6:30 AM73 °FPassing clouds.No wind89%30.04 "HgN/A
5:30 AM73 °FPassing clouds.No wind89%30.01 "HgN/A
4:30 AM73 °FPassing clouds.No wind89%30.01 "HgN/A
3:30 AM73 °FPassing clouds.2 mph89%30.01 "HgN/A
2:30 AM73 °FPassing clouds.1 mph83%30.01 "HgN/A
1:30 AM73 °FPassing clouds.No wind83%30.04 "HgN/A
12:30 AM73 °FPassing clouds.No wind89%30.04 "HgN/A
11:30 PM
Wed, Feb 10
75 °FPassing clouds.1 mph89%30.07 "HgN/A
10:30 PM75 °FPassing clouds.2 mph89%30.07 "HgN/A
9:30 PM77 °FPassing clouds.No wind83%30.01 "HgN/A
8:30 PM77 °FPassing clouds.2 mph89%30.01 "HgN/A
7:30 PM77 °FPassing clouds.1 mph89%30.01 "HgN/A
6:30 PM82 °FPassing clouds.7 mph74%30.01 "HgN/A
5:30 PM82 °FPassing clouds.5 mph74%30.01 "HgN/A
4:30 PM82 °FPassing clouds.3 mph79%30.01 "HgN/A
3:30 PM82 °FPassing clouds.3 mph74%30.01 "HgN/A
2:30 PM84 °FPassing clouds.7 mph70%30.04 "HgN/A
Weather by CustomWeather, © 2016

See weather overviewHow to use our weather pages